NETSAT-3

Last updated on Wed Mar 11 2026 00:03:59 GMT+0000 (Coordinated Universal Time)

1 46505U 20068V 26069.49145102 .00023383 00000+0 60492-3 0 9997 2 46505 97.8683 68.4098 0004846 355.6779 4.4422 15.39083596300482
UTC large
Height (km)
Speed (km/s)
/
Latitude / Longitude
Inclination (degrees)
Orbital Period (minutes)
Azimuth
Elevation
Range (km)
Doppler Factor

Next 0 passes for location: London (51.5072 / 0.1276)

Sorry there are no passes over London.